Location: Riverside Cemetery
(38.3047°N, 99.7773°W)
Time: 07:16:50
(UTC+00:00)

X-37B - Pass Details

Date: 19 September 2020
Orbit: 382 x 392 km, 45.0° (Epoch: 15 October)

Event Time Altitude Azimuth Distance (km) Brightness Sun altitude
Exits shadow 10:10:30 18° 33° (NNE) 1,034 3.3 -26.3°
Drops below altitude 10° 10:11:46 10° 52° (NE) 1,403 4.4 -26.1°
Sets 10:14:06 0° 67° (ENE) 2,259 5.8 -25.7°
